FDX2995 VABB-OKKK

Flight info

Callsign FDX2995
Flight time N/A
Altitude 34000
Route RAXET2A BISET P574 MIXAM P899 ROVOS G462 UKUVO Q563 IMGUX N563 ALPOB L768 RABLA M556 OBROS L768 JBL H741 ASVIR
Aircraft B77L/H-SDE1E2E3FGHIJ2J3J4J5M1RWXY/LB1D1

Departure

Time 2026-05-05 08:59
Airport Chhatrapati Shivaji Maharaj International Airport (VABB)

Arrival

Time N/A
Airport Kuwait International Airport (OKKK)
Time Latitude Longitude Altitude Speed Heading
2026-05-05 08:23 19.09543 72.86811 37 ft 0 kts 322°
2026-05-05 08:48 19.09528 72.86823 37 ft 3 kts 322°
2026-05-05 08:48 19.09511 72.86842 36 ft 4 kts 289°
2026-05-05 08:49 19.09510 72.86868 37 ft 4 kts 249°
2026-05-05 08:49 19.09523 72.86892 35 ft 3 kts 229°
2026-05-05 08:49 19.09526 72.86895 35 ft 0 kts 228°
2026-05-05 08:52 19.09525 72.86894 35 ft 1 kts 228°
2026-05-05 08:53 19.09505 72.86871 37 ft 7 kts 229°
2026-05-05 08:53 19.09450 72.86825 38 ft 13 kts 194°
2026-05-05 08:53 19.09363 72.86881 37 ft 18 kts 136°
2026-05-05 08:53 19.09265 72.86981 37 ft 21 kts 134°
2026-05-05 08:54 19.09234 72.87119 38 ft 21 kts 90°
2026-05-05 08:54 19.09233 72.87220 38 ft 10 kts 97°
2026-05-05 08:54 19.09180 72.87261 38 ft 10 kts 173°
2026-05-05 08:54 19.09110 72.87265 39 ft 10 kts 178°
2026-05-05 08:55 19.09054 72.87301 39 ft 10 kts 109°
2026-05-05 08:55 19.09052 72.87376 40 ft 10 kts 88°
2026-05-05 08:55 19.09053 72.87452 40 ft 10 kts 89°
2026-05-05 08:55 19.09054 72.87528 40 ft 10 kts 89°
2026-05-05 08:56 19.09054 72.87604 41 ft 10 kts 89°
2026-05-05 08:56 19.09055 72.87688 41 ft 13 kts 89°
2026-05-05 08:56 19.09040 72.87788 39 ft 14 kts 129°
2026-05-05 08:56 19.09010 72.87803 42 ft 4 kts 168°
2026-05-05 08:57 19.09007 72.87804 42 ft 0 kts 170°
2026-05-05 08:57 19.09003 72.87804 42 ft 3 kts 174°
2026-05-05 08:57 19.08936 72.87801 41 ft 18 kts 196°
2026-05-05 08:57 19.08886 72.87734 41 ft 0 kts 270°
2026-05-05 08:58 19.08886 72.87733 41 ft 0 kts 270°
2026-05-05 08:58 19.08886 72.87535 40 ft 76 kts 270°
2026-05-05 08:59 19.08869 72.86616 37 ft 173 kts 269°
2026-05-05 08:59 19.08844 72.85168 445 ft 210 kts 268°
2026-05-05 08:59 19.08771 72.83602 1345 ft 222 kts 268°
2026-05-05 08:59 19.08795 72.81927 2435 ft 233 kts 273°
2026-05-05 09:00 19.08904 72.80242 3521 ft 228 kts 272°
2026-05-05 09:00 19.08964 72.78559 4376 ft 234 kts 270°
2026-05-05 09:00 19.08993 72.76812 5119 ft 241 kts 271°
2026-05-05 09:00 19.09129 72.74985 5682 ft 258 kts 274°
2026-05-05 09:01 19.09193 72.73113 6647 ft 250 kts 271°
2026-05-05 09:01 19.09255 72.71260 7447 ft 256 kts 273°
2026-05-05 09:01 19.09452 72.69340 8066 ft 268 kts 276°
2026-05-05 09:01 19.09660 72.67322 8643 ft 283 kts 274°
2026-05-05 09:02 19.09850 72.65213 9368 ft 292 kts 274°
2026-05-05 09:02 19.10052 72.63054 10133 ft 299 kts 274°
2026-05-05 09:02 19.10270 72.60799 10557 ft 321 kts 274°
2026-05-05 09:02 19.10516 72.58353 10759 ft 348 kts 275°
2026-05-05 09:03 19.10791 72.55711 10985 ft 373 kts 276°
2026-05-05 09:03 19.11084 72.52944 11597 ft 384 kts 275°
2026-05-05 09:03 19.11388 72.50106 12366 ft 391 kts 275°
2026-05-05 09:03 19.11691 72.47275 13202 ft 394 kts 275°
2026-05-05 09:04 19.12004 72.44341 14033 ft 398 kts 275°
2026-05-05 09:04 19.12310 72.41470 14797 ft 400 kts 276°
2026-05-05 09:04 19.12623 72.38538 15576 ft 403 kts 276°
2026-05-05 09:04 19.12939 72.35568 16259 ft 408 kts 277°
2026-05-05 09:05 19.13255 72.32588 17109 ft 409 kts 277°
2026-05-05 09:05 19.13575 72.29580 17772 ft 414 kts 277°
2026-05-05 09:05 19.13897 72.26534 18399 ft 419 kts 277°
2026-05-05 09:05 19.14223 72.23456 18986 ft 423 kts 277°
2026-05-05 09:06 19.14551 72.20350 19601 ft 426 kts 278°
2026-05-05 09:06 19.14881 72.17230 20215 ft 429 kts 278°
2026-05-05 09:06 19.15211 72.14087 20804 ft 432 kts 278°
2026-05-05 09:06 19.15525 72.10919 21351 ft 435 kts 276°
2026-05-05 09:07 19.15331 72.07708 21809 ft 444 kts 259°
2026-05-05 09:07 19.14460 72.04568 22139 ft 449 kts 256°
2026-05-05 09:07 19.13539 72.01385 22556 ft 454 kts 256°
2026-05-05 09:07 19.12631 71.98179 23110 ft 456 kts 256°
2026-05-05 09:08 19.11735 71.94952 23608 ft 458 kts 257°
2026-05-05 09:08 19.10849 71.91707 24034 ft 461 kts 257°
2026-05-05 09:08 19.09969 71.88443 24439 ft 463 kts 257°
2026-05-05 09:08 19.09089 71.85162 24844 ft 465 kts 257°
2026-05-05 09:09 19.08206 71.81859 25250 ft 468 kts 256°
2026-05-05 09:09 19.07320 71.78544 25658 ft 470 kts 256°
2026-05-05 09:09 19.06429 71.75214 26059 ft 472 kts 256°
2026-05-05 09:09 19.05533 71.71869 26437 ft 474 kts 256°
2026-05-05 09:10 19.04632 71.68509 26826 ft 477 kts 256°
2026-05-05 09:10 19.03725 71.65131 27203 ft 479 kts 256°
2026-05-05 09:10 19.02813 71.61737 27575 ft 481 kts 256°
2026-05-05 09:10 19.01897 71.58332 27934 ft 483 kts 256°
2026-05-05 09:11 19.00975 71.54908 28275 ft 485 kts 256°
2026-05-05 09:11 19.00048 71.51465 28581 ft 488 kts 255°
2026-05-05 09:11 18.99115 71.48008 28886 ft 491 kts 255°
2026-05-05 09:11 18.98177 71.44531 29207 ft 493 kts 255°
2026-05-05 09:12 18.97235 71.41044 29512 ft 494 kts 255°
2026-05-05 09:12 18.96290 71.37550 29835 ft 496 kts 255°
2026-05-05 09:12 18.95343 71.34049 30205 ft 494 kts 255°
2026-05-05 09:12 18.94506 71.30592 30604 ft 491 kts 260°
2026-05-05 09:13 18.94015 71.27029 31031 ft 488 kts 265°
2026-05-05 09:13 18.93815 71.23455 31451 ft 486 kts 270°
2026-05-05 09:13 18.93924 71.19899 31850 ft 484 kts 273°
2026-05-05 09:13 18.94097 71.16351 32247 ft 483 kts 273°
2026-05-05 09:14 18.94270 71.12819 32650 ft 481 kts 273°
2026-05-05 09:14 18.94439 71.09291 33065 ft 480 kts 273°
2026-05-05 09:14 18.94599 71.05781 33485 ft 478 kts 273°
2026-05-05 09:14 18.94754 71.02276 33857 ft 478 kts 272°
2026-05-05 09:15 18.94905 70.98758 33845 ft 481 kts 272°
2026-05-05 09:15 18.95200 70.91729 33849 ft 477 kts 272°
2026-05-05 09:16 18.95489 70.84746 33847 ft 475 kts 272°
2026-05-05 09:16 18.95776 70.77775 33855 ft 475 kts 272°
2026-05-05 09:17 18.96060 70.70805 33861 ft 475 kts 272°
2026-05-05 09:17 18.96342 70.63825 33854 ft 476 kts 272°
2026-05-05 09:18 18.96623 70.56830 33852 ft 477 kts 272°
2026-05-05 09:18 18.96901 70.49823 33857 ft 478 kts 272°
2026-05-05 09:19 18.97177 70.42800 33857 ft 479 kts 272°
2026-05-05 09:19 18.97449 70.35821 33856 ft 479 kts 272°
2026-05-05 09:20 18.97720 70.28785 33857 ft 479 kts 272°
2026-05-05 09:20 18.97988 70.21753 33852 ft 479 kts 272°
2026-05-05 09:21 18.98209 70.15905 33847 ft 479 kts 272°
2026-05-05 09:21 18.98473 70.08874 33850 ft 479 kts 272°